Crane, WA

3:41 PM PST on February 20, 2017 (GMT -0800)
Eagles Nest at the Bluff | | Change Station
Active Advisory: Small Craft Advisory

Elev 200 ft 48.12 °N, 123.30 °W | Updated 4 seconds ago

Rain
Rain
46.1 °F
Feels Like 46 °F
N
0.0
Wind Variable Wind from ESE

Today
High -- | Low -- °F
--% Chance of Precip.
Yesterday
High -- | Low -- °F
Precip. -- in
Pressure 29.65 in
Visibility 9.0 miles
Clouds Mostly Cloudy 3000 ft
Mostly Cloudy 3800 ft
Overcast 4800 ft
Windchill 46 °F
Dew Point 41 °F
Humidity 85%
Rainfall 0.00 in
Snow Depth Not available.
7:10 AM 5:44 PM
Waning Crescent, 30% visible
SPECI KCLM 202318Z AUTO 00000KT 9SM -RA BKN030 BKN038 OVC048 07/06 A2965 RMK AO2 P0000 T00720056
Pressure 29.65 in
Visibility 9.0 miles
Clouds Mostly Cloudy 3000 ft
Mostly Cloudy 3800 ft
Overcast 4800 ft
Windchill 46 °F
Dew Point 41 °F
Humidity 85%
Rainfall 0.00 in
Snow Depth Not available.
7:10 AM 5:44 PM
Waning Crescent, 30% visible
SPECI KCLM 202318Z AUTO 00000KT 9SM -RA BKN030 BKN038 OVC048 07/06 A2965 RMK AO2 P0000 T00720056

Get Your Daily Forecast Email!

Thanks for signing up!

Be on the lookout for a verification email in your inbox.

You'll start receiving the daily forecast at 8 AM.

×

10-Day Weather Forecast

Almanac

Astronomy

Feb. 20, 2017 Rise Set
Actual Time
Civil Twilight
Nautical Twilight
Astronomical Twilight
Moon
Length of Visible Light
Length of Day
Tomorrow will be .
, % of the Moon is Illuminated

Today's Extremes

State Highs State Lows

Community

WunderPhotos

Upload Photos

1,962,540 photos uploaded!

WunderBlog® & News

Nearby

Air Quality

  Air Quality AQ Index Pollutant
Not available.

Snow Depth

Station Depth Elevation

Earthquake Activity

City Distance Mag. Time & Date
Minimum magnitude displayed is 2.5.

Coastal Water Temperatures

Place Temperature

Stations

Nearby Weather Stations

Station Location Temp. Windchill Dew Point Humidity Wind Precip. Elev Updated Type
                   

Watches & Warnings

Small Craft Advisory
Issued: 2:29 PM PST Feb. 20, 2017 – National Weather Service

... Small Craft Advisory remains in effect until 3 am PST Tuesday...

* winds... west 15 to 25 knots.

* Wind waves... 2 to 4 feet.

Precautionary/preparedness actions...

A Small Craft Advisory means that wind speeds of 21 to 33 knots are
expected to produce hazardous wave conditions to small craft.
Inexperienced mariners... especially those operating smaller vessels
should avoid navigating in these conditions.




Www.Weather.Gov